{"data":{"norad_id":52689,"intl_designator":"2022-053AK","name":"STARLINK-4078","alt_names":[],"object_type":"PAYLOAD","status":"ACTIVE","operator":null,"country":"US","launch_date":"2022-05-18","launch_site_code":"AFETR","launch_vehicle":null,"mission":null,"orbit_class":"UNKNOWN","rcs_meters":null,"size_class":null,"mass_kg":null,"dimensions":null,"purposes":["comms"],"wikipedia_slug":null,"has_3d_model":false,"image_url":null,"decayed_at":null,"tle_current":{"epoch":"2026-05-25T04:41:02.849568Z","epoch_age_seconds":51478,"freshness":"FRESH","line1":"1 52689U 22053AK  26145.19517187  .00114325  00000+0  10486-2 0  9995","line2":"2 52689  53.2073  72.3123 0005125  78.5235 281.6358 15.66908409223955","mean_motion":15.66908409,"eccentricity":0.0005125,"inclination_deg":53.2073,"raan_deg":72.3123,"arg_perigee_deg":78.5235,"mean_anomaly_deg":281.6358,"bstar":0.0010486,"rev_number":22395,"period_min":91.900713004598,"perigee_km":364.29850432614,"apogee_km":371.21304441987,"semimajor_km":6745.892774373,"source":"CELESTRAK","updated_at":"2026-05-25T13:38:17.236177Z"}}}